Location: Lugano
(46.0000°N, 8.9670°E)
Time: 16:59:29
(UTC+02:00)

JY1SAT - Visible Passes

Search period start: 13 April 2026 00:00
Search period end: 23 April 2026 00:00
Orbit: 466 x 476 km, 97.4° (Epoch: 13 April)

Date Brightness Start Highest point End Pass type
(mag) Time Alt. Az. Time Alt. Az. Time Alt. Az.
13 Apr ? 22:36:13 63° NW 22:36:13 63° NW 22:39:16 10° NNW visible
14 Apr ? 22:07:16 43° ENE 22:07:16 43° ENE 22:10:34 10° N visible
14 Apr ? 23:41:20 12° WNW 23:41:20 12° WNW 23:42:18 10° WNW visible
15 Apr ? 21:38:18 20° E 21:38:46 21° ENE 21:41:27 10° NNE visible
15 Apr ? 23:12:22 26° WNW 23:12:22 26° WNW 23:14:51 10° NW visible
16 Apr ? 21:09:46 10° ENE 21:10:26 10° ENE 21:11:05 10° NE visible
16 Apr ? 22:43:23 60° WNW 22:43:23 60° WNW 22:46:35 10° NNW visible
17 Apr ? 22:14:22 53° E 22:14:28 53° ENE 22:17:55 10° N visible
17 Apr ? 23:48:26 10° W 23:48:26 10° W 23:48:47 10° WNW visible
18 Apr ? 21:45:21 23° E 21:45:57 24° ENE 21:48:51 10° NNE visible
18 Apr ? 23:19:25 22° W 23:19:25 22° W 23:21:54 10° NW visible
19 Apr ? 21:16:18 11° E 21:17:32 12° ENE 21:19:02 10° NE visible
19 Apr ? 22:50:22 50° W 22:50:22 50° W 22:53:42 10° NNW visible
20 Apr ? 22:21:18 63° ESE 22:21:34 66° ENE 22:25:03 10° N visible
21 Apr ? 21:52:13 26° E 21:52:57 29° ENE 21:56:02 10° N visible
21 Apr ? 23:26:17 19° W 23:26:17 19° W 23:28:43 10° NW visible
22 Apr ? 21:23:07 12° E 21:24:27 14° ENE 21:26:25 10° NNE visible
22 Apr ? 22:57:11 41° WSW 22:57:16 41° W 23:00:37 10° NNW visible
